Content
SEND FEEDBACK

Daily
Averages
Monthly
Summary
Canada

VANCOUVER, BRITISH COLUMBIA


Home > North America > Canada > British Columbia
Elevation: 7 feet     Latitude: 49 11N     Longitude: 123 10W

WEATHER
 
SELECT A DAY
Number of Records: 254,959;   Date Range: 5/15/97 - 12/20/14
 
SHARE

PRINT THIS DATA

[ ← Previous Day ]
WEATHER ALMANAC - SEPTEMBER 25, 2013
[ Next Day → ]
[ °C ]   °F
Weather ElementAverageHighLow
Temperature52.7 °F59 °F (4:35 pm)50 °F (1:35 am)
Dewpoint48.2 °F50 °F (12:35 am)46.4 °F (4:55 pm)
Humidity85.5 %100 % (1:35 am)63 % (4:55 pm)
Barometer29.94 in30.00 in (11:35 pm)29.86 in (12:35 am)
Wind Speed7 mph16.1 mph (11:35 am)
Wind Gust23 mph (11:55 am)
Weather ElementAverage
Visibility9 mi
Wind DirectionWSW (248 °)

Weather ElementTotal
Precipitation2.63 in
Heating Degree Days10.5 (Base 65)
Growing Degree Days4.5 (Base 50)
Averaged from 70 records on September 25, 2013
WEATHER CONDITIONS BREAKOUT
WIND DIRECTION BREAKOUT
WEATHER BY HOUR - SEPTEMBER 25, 2013
[ °C ]   °F
Local TimeTemperatureDewpointHumidityBarometerVisibilityWind DirectionWind SpeedGust SpeedPrecipitationEventsConditions
12:35 AM51.8 °F50.0 °F94 %29.86 in5.0 miNNW (330°)6.9 mphRainRain
12:55 AM51.8 °F50.0 °F94 %29.86 in5.0 miNNW (330°)9.2 mphRainRain
1:15 AM51.8 °F50.0 °F94 %29.87 in2.0 miNorth (350°)5.8 mph0.14 inRainHeavy Rain
1:35 AM50.0 °F50.0 °F100 %29.87 in2.5 miNW (320°)6.9 mph0.30 inRainHeavy Rain
1:55 AM50.0 °F50.0 °F100 %29.87 in2.5 miNW (320°)6.9 mph0.50 inRainHeavy Rain
2:15 AM50.0 °F50.0 °F100 %29.87 in1.2 miNNW (330°)8.1 mph16.1 mph0.25 inRainHeavy Rain
2:35 AM50.0 °F50.0 °F100 %29.87 in2.0 miWSW (240°)5.8 mph0.64 inRainHeavy Rain
2:55 AM50.0 °F50.0 °F100 %29.87 in4.0 miNorth0.80 inRainRain
3:15 AM50.0 °F50.0 °F100 %29.88 in6.0 miNNW (340°)4.6 mphRainLight Rain
3:35 AM50.0 °F50.0 °F100 %29.88 in6.0 miNNW (340°)3.5 mphRainLight Rain
3:55 AM50.0 °F50.0 °F100 %29.89 in7.0 miCalmRainLight Rain
4:15 AM50.0 °F50.0 °F100 %29.88 in10.0 miCalmRainLight Rain
4:35 AM50.0 °F48.2 °F94 %29.89 in9.0 miNW (320°)5.8 mphRainLight Rain
4:55 AM50.0 °F48.2 °F94 %29.89 in10.0 miNNW (330°)8.1 mphRainLight Rain
5:15 AM50.0 °F48.2 °F94 %29.89 in10.0 miNNW (330°)6.9 mphRainLight Rain
5:35 AM50.0 °F48.2 °F94 %29.89 in10.0 miNNW (330°)6.9 mphRainLight Rain
5:55 AM50.0 °F48.2 °F94 %29.89 in10.0 miNW (320°)5.8 mphRainLight Rain
6:15 AM51.8 °F48.2 °F88 %29.89 in10.0 miNorth (350°)9.2 mphRainLight Rain
6:35 AM51.8 °F48.2 °F88 %29.90 in10.0 miNorth (350°)9.2 mphOvercast
6:55 AM51.8 °F48.2 °F88 %29.90 in10.0 miNorth (350°)11.5 mphRainLight Rain
7:15 AM51.8 °F48.2 °F88 %29.91 in10.0 miNorth (350°)12.7 mph17.3 mphRainLight Rain
7:35 AM51.8 °F48.2 °F88 %29.91 in10.0 miNNW (340°)9.2 mphMostly Cloudy
7:55 AM51.8 °F48.2 °F88 %29.92 in10.0 miNorth (350°)10.4 mphMostly Cloudy
8:15 AM51.8 °F48.2 °F88 %29.93 in10.0 miNorth (350°)8.1 mphOvercast
8:35 AM51.8 °F48.2 °F88 %29.93 in10.0 miNorth (350°)10.4 mphOvercast
8:55 AM51.8 °F48.2 °F88 %29.94 in10.0 miNorth (360°)9.2 mphOvercast
9:15 AM51.8 °F48.2 °F88 %29.95 in10.0 miNorth (350°)12.7 mphOvercast
9:35 AM51.8 °F48.2 °F88 %29.95 in10.0 miNorth (360°)10.4 mphOvercast
9:55 AM51.8 °F48.2 °F88 %29.95 in10.0 miNorth (350°)12.7 mph18.4 mphOvercast
10:15 AM51.8 °F48.2 °F88 %29.95 in10.0 miNorth (350°)12.7 mphOvercast
10:35 AM51.8 °F48.2 °F88 %29.95 in10.0 miNorth (350°)12.7 mph18.4 mphOvercast
10:55 AM51.8 °F48.2 °F88 %29.96 in10.0 miNNW (340°)13.8 mph18.4 mphOvercast
11:15 AM51.8 °F48.2 °F88 %29.96 in10.0 miNNW (340°)15.0 mph20.7 mphOvercast
11:35 AM53.6 °F48.2 °F82 %29.96 in10.0 miNNW (340°)16.1 mph21.9 mphMostly Cloudy
11:55 AM53.6 °F48.2 °F82 %29.96 in10.0 miNNW (340°)16.1 mph23.0 mphMostly Cloudy
12:15 PM53.6 °F48.2 °F82 %29.96 in10.0 miNNW (340°)13.8 mph17.3 mphClear
12:35 PM53.6 °F48.2 °F82 %29.96 in10.0 miNNW (340°)13.8 mph19.6 mphClear
12:55 PM53.6 °F48.2 °F82 %29.96 in10.0 miNNW (340°)13.8 mph19.6 mphClear
1:15 PM53.6 °F48.2 °F82 %29.96 in10.0 miNorth (350°)12.7 mph18.4 mphClear
1:55 PM55.4 °F48.2 °F77 %29.96 in10.0 miNorth (350°)11.5 mph17.3 mphClear
2:15 PM55.4 °F48.2 °F77 %29.96 in10.0 miNNW (330°)5.8 mphClear
2:35 PM55.4 °F48.2 °F77 %29.96 in10.0 miNW (310°)5.8 mphClear
2:55 PM55.4 °F48.2 °F77 %29.96 in10.0 miNNW (340°)8.1 mphClear
3:15 PM57.2 °F48.2 °F72 %29.96 in10.0 miNNW (340°)8.1 mphClear
3:35 PM57.2 °F48.2 °F72 %29.95 in10.0 miNorth (350°)10.4 mphClear
3:55 PM57.2 °F48.2 °F72 %29.95 in10.0 miNorth (350°)3.5 mphClear
4:15 PM57.2 °F48.2 °F72 %29.95 in10.0 miNNW (340°)5.8 mphClear
4:35 PM59.0 °F48.2 °F67 %29.95 in10.0 miNW (320°)4.6 mphRainLight Rain
4:55 PM59.0 °F46.4 °F63 %29.95 in10.0 miCalmClear
5:15 PM59.0 °F46.4 °F63 %29.96 in10.0 miWest (280°)3.5 mphRainLight Rain
5:35 PM59.0 °F46.4 °F63 %29.95 in10.0 miWSW (240°)4.6 mphClear
5:55 PM59.0 °F48.2 °F67 %29.95 in10.0 miSSW (200°)4.6 mphRainLight Rain
6:15 PM59.0 °F48.2 °F67 %29.95 in10.0 miNorthClear
6:35 PM57.2 °F48.2 °F72 %29.96 in10.0 miCalmClear
6:55 PM55.4 °F48.2 °F77 %29.96 in10.0 miCalmClear
7:15 PM51.8 °F48.2 °F88 %29.96 in10.0 miCalmClear
7:35 PM50.0 °F48.2 °F94 %29.96 in10.0 miCalmClear
7:55 PM50.0 °F46.4 °F87 %29.96 in10.0 miCalmRainLight Rain
8:15 PM50.0 °F48.2 °F94 %29.97 in10.0 miCalmRainLight Rain
8:35 PM51.8 °F48.2 °F88 %29.97 in10.0 miNorthRainLight Rain
8:55 PM51.8 °F48.2 °F88 %29.97 in10.0 miSouth (170°)3.5 mphRainLight Rain
9:15 PM51.8 °F46.4 °F82 %29.98 in10.0 miSouth (190°)3.5 mphRainLight Rain
9:35 PM51.8 °F46.4 °F82 %29.98 in10.0 miCalmRainLight Rain
9:55 PM51.8 °F46.4 °F82 %29.98 in10.0 miSouth (170°)3.5 mphRainLight Rain
10:15 PM51.8 °F46.4 °F82 %29.99 in10.0 miCalmRainLight Rain
10:35 PM51.8 °F46.4 °F82 %29.99 in10.0 miSouth (180°)4.6 mphRainLight Rain
10:55 PM50.0 °F46.4 °F87 %29.99 in10.0 miSouth (170°)3.5 mphRainLight Rain
11:15 PM50.0 °F46.4 °F87 %29.99 in10.0 miSouth (180°)6.9 mphRainLight Rain
11:35 PM50.0 °F46.4 °F87 %30.00 in10.0 miSouth (190°)5.8 mphRainLight Rain
11:55 PM50.0 °F46.4 °F87 %30.00 in10.0 miSouth (190°)4.6 mphClear
Hourly data recorded from CZBB, located miles away from Vancouver, British Columbia







STORIES FROM OUR PARTNERS